This is the latest recevied weather packets stored in our database for station/object WP3OF-1. If no packets are shown the sender has not sent any weather packets the latest 10 day(s).
| Time | Temp. | Humidity | Pressure | Rain* | Wind** | Luminosity | Snow |
|---|---|---|---|---|---|---|---|
| 1777811788 | 27.78° C | 75% | 1018.9 hPa | 0 mm | - | - | - |
| 1777811485 | 27.22° C | 77% | 1018.9 hPa | 0 mm | - | - | - |
| 1777811181 | 27.22° C | 78% | 1018.7 hPa | 0 mm | - | - | - |
| 1777810879 | 27.78° C | 78% | 1018.6 hPa | 0 mm | - | - | - |
| 1777810575 | 27.22° C | 78% | 1018.3 hPa | 0 mm | - | - | - |
| 1777810272 | 27.78° C | 77% | 1018.4 hPa | 0 mm | - | - | - |
| 1777809967 | 27.22° C | 78% | 1018.5 hPa | 0 mm | - | - | - |
| 1777809666 | 27.22° C | 78% | 1018.6 hPa | 0 mm | - | - | - |
| 1777809363 | 26.67° C | 78% | 1018.6 hPa | 0 mm | - | - | - |
| 1777809061 | 27.22° C | 78% | 1018.3 hPa | 0 mm | - | - | - |
| 1777808758 | 26.67° C | 80% | 1018.3 hPa | 0 mm | - | - | - |
| 1777808454 | 26.11° C | 81% | 1018.1 hPa | 0 mm | - | - | - |
| 1777808152 | 26.67° C | 81% | 1018.1 hPa | 0 mm | - | - | - |
| 1777807850 | 26.11° C | 81% | 1018.1 hPa | 0 mm | - | - | - |
| 1777807549 | 26.11° C | 82% | 1018 hPa | 0 mm | - | - | - |
| 1777807244 | 26.67° C | 81% | 1018.1 hPa | 0 mm | - | - | - |
| 1777806941 | 26.11° C | 82% | 1017.9 hPa | 0 mm | - | - | - |
| 1777806637 | 26.11° C | 82% | 1018 hPa | 0 mm | - | - | - |
| 1777806333 | 26.11° C | 83% | 1017.9 hPa | 0 mm | - | - | - |
| 1777806031 | 26.11° C | 83% | 1017.8 hPa | 0 mm | - | - | - |
| 1777805727 | 25.56° C | 84% | 1017.8 hPa | 0 mm | - | - | - |
| 1777805425 | 25.56° C | 84% | 1017.9 hPa | 0 mm | - | - | - |
| 1777805123 | 25.56° C | 84% | 1017.9 hPa | 0 mm | - | - | - |
| 1777804820 | 25.56° C | 84% | 1017.8 hPa | 0 mm | - | - | - |
| 1777804518 | 25.56° C | 84% | 1017.8 hPa | 0 mm | - | - | - |
* Rain latest hour (hover to see other rain measurements)
** Current wind speed in m/s (hover to see current wind gust speed)